Time,TemperatureF,DewpointF,PressureIn,WindDirection,WindDirectionDegrees,WindSpeedMPH,WindSpeedGustMPH,Humidity,HourlyPrecipIn,Conditions,Clouds,dailyrainin,SoftwareType,DateUTC
2013-03-06 00:01:00,45.0,43.0,26.28,WSW,251,5.0,7.0,93,-99.99,,,-99.99,,2013-03-06 08:01:00,
2013-03-06 00:11:00,45.0,43.0,26.28,WSW,245,5.0,8.0,92,-99.99,,,-99.99,,2013-03-06 08:11:00,
2013-03-06 00:21:00,45.0,43.0,26.28,WSW,239,4.0,9.0,93,-99.99,,,-99.99,,2013-03-06 08:21:00,
2013-03-06 00:31:00,45.0,43.0,26.26,WSW,242,5.0,7.0,92,-99.99,,,-99.99,,2013-03-06 08:31:00,
2013-03-06 00:42:00,45.0,42.0,26.26,WSW,238,5.0,9.0,90,-99.99,,,-99.99,,2013-03-06 08:42:00,
2013-03-06 00:52:00,45.0,42.0,26.23,SW,235,7.0,10.0,89,-99.99,,,-99.99,,2013-03-06 08:52:00,
2013-03-06 01:01:00,45.0,42.0,26.23,SW,235,7.0,10.0,89,-99.99,,,-99.99,,2013-03-06 09:01:00,
2013-03-06 01:12:00,45.0,43.0,26.26,SW,234,7.0,11.0,91,-99.99,,,-99.99,,2013-03-06 09:12:00,
2013-03-06 01:21:00,45.0,43.0,26.26,SW,234,6.0,10.0,91,-99.99,,,-99.99,,2013-03-06 09:21:00,
2013-03-06 01:31:00,45.0,43.0,26.26,WSW,237,7.0,11.0,91,-99.99,,,-99.99,,2013-03-06 09:31:00,
2013-03-06 01:41:00,45.0,43.0,26.26,WSW,238,7.0,11.0,91,-99.99,,,-99.99,,2013-03-06 09:41:00,
2013-03-06 01:51:00,44.0,42.0,26.26,WSW,238,9.0,14.0,92,-99.99,,,-99.99,,2013-03-06 09:51:00,
2013-03-06 02:01:00,44.0,42.0,26.26,SW,232,8.0,15.0,92,-99.99,,,-99.99,,2013-03-06 10:01:00,
2013-03-06 02:11:00,44.0,42.0,26.26,SW,229,8.0,13.0,91,-99.99,,,-99.99,,2013-03-06 10:11:00,
2013-03-06 02:21:00,44.0,42.0,26.26,SW,227,8.0,11.0,92,-99.99,,,-99.99,,2013-03-06 10:21:00,
2013-03-06 02:31:00,44.0,42.0,26.26,SW,221,9.0,13.0,93,-99.99,,,-99.99,,2013-03-06 10:31:00,
2013-03-06 02:41:00,43.0,41.0,26.26,SW,223,8.0,14.0,93,-99.99,,,-99.99,,2013-03-06 10:41:00,
2013-03-06 02:51:00,43.0,41.0,26.26,SW,233,9.0,13.0,93,-99.99,,,-99.99,,2013-03-06 10:51:00,
2013-03-06 03:01:00,43.0,41.0,26.26,SW,233,9.0,13.0,93,-99.99,,,-99.99,,2013-03-06 11:01:00,
2013-03-06 03:11:00,43.0,41.0,26.26,SW,231,8.0,11.0,93,-99.99,,,-99.99,,2013-03-06 11:11:00,
2013-03-06 03:22:00,43.0,41.0,26.28,SW,226,7.0,11.0,93,-99.99,,,-99.99,,2013-03-06 11:22:00,
2013-03-06 03:31:00,43.0,41.0,26.26,SW,220,6.0,11.0,93,-99.99,,,-99.99,,2013-03-06 11:31:00,
2013-03-06 03:42:00,43.0,40.0,26.23,SW,214,8.0,12.0,90,-99.99,,,-99.99,,2013-03-06 11:42:00,
2013-03-06 03:52:00,43.0,40.0,26.23,SW,218,7.0,10.0,89,-99.99,,,-99.99,,2013-03-06 11:52:00,
2013-03-06 04:01:00,43.0,40.0,26.23,SW,218,6.0,9.0,88,-99.99,,,-99.99,,2013-03-06 12:01:00,
2013-03-06 04:11:00,43.0,40.0,26.20,SW,236,6.0,8.0,88,-99.99,,,-99.99,,2013-03-06 12:11:00,
2013-03-06 04:21:00,43.0,41.0,26.26,SW,236,7.0,12.0,92,-99.99,,,-99.99,,2013-03-06 12:21:00,
2013-03-06 04:32:00,42.0,40.0,26.26,SW,221,7.0,10.0,93,-99.99,,,-99.99,,2013-03-06 12:32:00,
2013-03-06 04:42:00,42.0,40.0,26.26,SW,226,6.0,12.0,92,-99.99,,,-99.99,,2013-03-06 12:42:00,
2013-03-06 04:52:00,42.0,40.0,26.26,SW,221,6.0,9.0,93,-99.99,,,-99.99,,2013-03-06 12:52:00,
2013-03-06 05:01:00,42.0,40.0,26.26,SW,220,6.0,11.0,92,-99.99,,,-99.99,,2013-03-06 13:01:00,
2013-03-06 05:11:00,42.0,40.0,26.26,SW,218,5.0,8.0,91,-99.99,,,-99.99,,2013-03-06 13:11:00,
2013-03-06 05:21:00,42.0,39.0,26.23,SW,226,4.0,8.0,90,-99.99,,,-99.99,,2013-03-06 13:21:00,
2013-03-06 05:31:00,42.0,39.0,26.23,SW,234,4.0,7.0,90,-99.99,,,-99.99,,2013-03-06 13:31:00,
2013-03-06 05:42:00,42.0,39.0,26.23,SW,224,3.0,6.0,90,-99.99,,,-99.99,,2013-03-06 13:42:00,
2013-03-06 05:51:00,42.0,39.0,26.23,SW,222,2.0,6.0,90,-99.99,,,-99.99,,2013-03-06 13:51:00,
2013-03-06 06:01:00,42.0,39.0,26.23,WSW,248,2.0,4.0,90,-99.99,,,-99.99,,2013-03-06 14:01:00,
2013-03-06 06:11:00,42.0,39.0,26.23,West,261,3.0,5.0,90,-99.99,,,-99.99,,2013-03-06 14:11:00,
2013-03-06 06:21:00,42.0,39.0,26.23,WSW,239,3.0,6.0,90,-99.99,,,-99.99,,2013-03-06 14:21:00,
2013-03-06 06:32:00,42.0,40.0,26.23,WSW,241,4.0,7.0,91,-99.99,,,-99.99,,2013-03-06 14:32:00,
2013-03-06 06:41:00,42.0,40.0,26.26,West,260,3.0,7.0,92,-99.99,,,-99.99,,2013-03-06 14:41:00,
2013-03-06 06:52:00,42.0,40.0,26.26,WSW,249,4.0,7.0,93,-99.99,,,-99.99,,2013-03-06 14:52:00,
2013-03-06 07:01:00,42.0,40.0,26.26,WSW,249,4.0,6.0,93,-99.99,,,-99.99,,2013-03-06 15:01:00,
2013-03-06 07:11:00,42.0,40.0,26.26,West,271,4.0,7.0,91,-99.99,,,-99.99,,2013-03-06 15:11:00,
2013-03-06 07:21:00,42.0,39.0,26.23,West,280,3.0,6.0,89,-99.99,,,-99.99,,2013-03-06 15:21:00,
2013-03-06 07:32:00,43.0,39.0,26.20,West,275,5.0,9.0,87,-99.99,,,-99.99,,2013-03-06 15:32:00,
2013-03-06 07:41:00,43.0,38.0,26.14,WNW,290,3.0,6.0,81,-99.99,,,-99.99,,2013-03-06 15:41:00,
2013-03-06 07:52:00,43.0,38.0,26.14,WNW,290,3.0,6.0,81,-99.99,,,-99.99,,2013-03-06 15:52:00,
2013-03-06 08:01:00,44.0,37.0,26.05,NW,313,4.0,8.0,75,-99.99,,,-99.99,,2013-03-06 16:01:00,
2013-03-06 08:11:00,44.0,37.0,26.05,WNW,295,3.0,8.0,75,-99.99,,,-99.99,,2013-03-06 16:11:00,
2013-03-06 08:21:00,44.0,37.0,26.05,WNW,289,3.0,7.0,75,-99.99,,,-99.99,,2013-03-06 16:21:00,
2013-03-06 08:32:00,44.0,37.0,26.05,SW,236,3.0,8.0,75,-99.99,,,-99.99,,2013-03-06 16:32:00,
2013-03-06 08:41:00,44.0,37.0,26.05,SW,220,6.0,9.0,76,-99.99,,,-99.99,,2013-03-06 16:41:00,
2013-03-06 08:51:00,44.0,37.0,26.05,West,266,4.0,7.0,75,-99.99,,,-99.99,,2013-03-06 16:51:00,
2013-03-06 09:01:00,44.0,37.0,26.08,WSW,256,4.0,8.0,76,-99.99,,,-99.99,,2013-03-06 17:01:00,
2013-03-06 09:11:00,44.0,37.0,26.08,WSW,251,4.0,7.0,76,-99.99,,,-99.99,,2013-03-06 17:11:00,
2013-03-06 09:21:00,45.0,38.0,26.08,SW,230,5.0,8.0,76,-99.99,,,-99.99,,2013-03-06 17:21:00,
2013-03-06 09:31:00,46.0,39.0,26.05,SW,219,6.0,12.0,75,-99.99,,,-99.99,,2013-03-06 17:31:00,
2013-03-06 09:41:00,46.0,39.0,26.05,SSW,207,6.0,9.0,75,-99.99,,,-99.99,,2013-03-06 17:41:00,
2013-03-06 09:52:00,47.0,38.0,26.05,SSW,192,5.0,10.0,72,-99.99,,,-99.99,,2013-03-06 17:52:00,
2013-03-06 10:01:00,48.0,39.0,26.05,SW,216,6.0,11.0,72,-99.99,,,-99.99,,2013-03-06 18:01:00,
2013-03-06 10:28:00,49.0,39.0,25.99,SW,218,7.0,12.0,67,-99.99,,,-99.99,,2013-03-06 18:28:00,
2013-03-06 10:42:00,50.0,39.0,25.96,SW,224,8.0,13.0,65,-99.99,,,-99.99,,2013-03-06 18:42:00,
2013-03-06 10:52:00,51.0,39.0,25.96,SW,230,9.0,14.0,64,-99.99,,,-99.99,,2013-03-06 18:52:00,
2013-03-06 11:02:00,51.0,39.0,25.96,SW,228,9.0,13.0,63,-99.99,,,-99.99,,2013-03-06 19:02:00,
2013-03-06 11:11:00,51.0,38.0,25.93,WSW,237,9.0,14.0,61,-99.99,,,-99.99,,2013-03-06 19:11:00,
2013-03-06 11:21:00,52.0,39.0,25.93,SW,234,10.0,15.0,62,-99.99,,,-99.99,,2013-03-06 19:21:00,
2013-03-06 11:32:00,52.0,39.0,25.93,SW,228,10.0,14.0,60,-99.99,,,-99.99,,2013-03-06 19:32:00,
2013-03-06 11:42:00,53.0,39.0,25.93,SW,221,10.0,16.0,60,-99.99,,,-99.99,,2013-03-06 19:42:00,
2013-03-06 11:52:00,53.0,39.0,25.93,SW,220,12.0,19.0,59,-99.99,,,-99.99,,2013-03-06 19:52:00,
2013-03-06 12:01:00,54.0,40.0,25.90,SW,220,11.0,16.0,58,-99.99,,,-99.99,,2013-03-06 20:01:00,
2013-03-06 12:11:00,54.0,39.0,25.90,SW,217,11.0,16.0,57,-99.99,,,-99.99,,2013-03-06 20:11:00,
2013-03-06 12:22:00,55.0,40.0,25.87,SW,219,11.0,19.0,56,-99.99,,,-99.99,,2013-03-06 20:22:00,
2013-03-06 12:32:00,55.0,39.0,25.87,SW,222,10.0,16.0,55,-99.99,,,-99.99,,2013-03-06 20:32:00,
2013-03-06 12:42:00,56.0,40.0,25.87,SSW,212,10.0,15.0,54,-99.99,,,-99.99,,2013-03-06 20:42:00,
2013-03-06 12:52:00,56.0,39.0,25.87,SSW,213,10.0,15.0,53,-99.99,,,-99.99,,2013-03-06 20:52:00,
2013-03-06 13:01:00,56.0,39.0,25.87,SW,224,10.0,15.0,53,-99.99,,,-99.99,,2013-03-06 21:01:00,
2013-03-06 13:11:00,57.0,40.0,25.84,SW,220,7.0,15.0,52,-99.99,,,-99.99,,2013-03-06 21:11:00,
2013-03-06 13:21:00,58.0,39.0,25.84,SW,224,7.0,15.0,50,-99.99,,,-99.99,,2013-03-06 21:21:00,
2013-03-06 13:31:00,58.0,39.0,25.84,SW,223,9.0,14.0,49,-99.99,,,-99.99,,2013-03-06 21:31:00,
2013-03-06 13:42:00,58.0,39.0,25.84,SW,232,10.0,15.0,49,-99.99,,,-99.99,,2013-03-06 21:42:00,
2013-03-06 13:51:00,59.0,40.0,25.81,SW,222,11.0,17.0,49,-99.99,,,-99.99,,2013-03-06 21:51:00,
2013-03-06 14:01:00,58.0,39.0,25.84,SW,221,14.0,20.0,50,-99.99,,,-99.99,,2013-03-06 22:01:00,
2013-03-06 14:11:00,58.0,39.0,25.84,SW,228,12.0,19.0,49,-99.99,,,-99.99,,2013-03-06 22:11:00,
2013-03-06 14:21:00,58.0,39.0,25.84,SW,230,13.0,21.0,50,-99.99,,,-99.99,,2013-03-06 22:21:00,
2013-03-06 14:31:00,58.0,39.0,25.84,WSW,238,11.0,18.0,49,-99.99,,,-99.99,,2013-03-06 22:31:00,
2013-03-06 14:41:00,58.0,38.0,25.81,WSW,258,10.0,18.0,48,-99.99,,,-99.99,,2013-03-06 22:41:00,
2013-03-06 14:51:00,58.0,38.0,25.81,WSW,250,10.0,18.0,48,-99.99,,,-99.99,,2013-03-06 22:51:00,
2013-03-06 15:01:00,58.0,39.0,25.81,WSW,252,9.0,17.0,49,-99.99,,,-99.99,,2013-03-06 23:01:00,
2013-03-06 15:11:00,58.0,38.0,25.81,WNW,286,7.0,15.0,48,-99.99,,,-99.99,,2013-03-06 23:11:00,
2013-03-06 15:21:00,57.0,38.0,25.81,WNW,286,8.0,14.0,48,-99.99,,,-99.99,,2013-03-06 23:21:00,
2013-03-06 15:31:00,57.0,37.0,25.81,WSW,258,7.0,16.0,47,-99.99,,,-99.99,,2013-03-06 23:31:00,
2013-03-06 15:41:00,57.0,38.0,25.81,WSW,255,9.0,15.0,48,-99.99,,,-99.99,,2013-03-06 23:41:00,
2013-03-06 15:52:00,57.0,38.0,25.81,WSW,255,9.0,15.0,48,-99.99,,,-99.99,,2013-03-06 23:52:00,
2013-03-06 16:01:00,57.0,38.0,25.81,West,276,8.0,15.0,48,-99.99,,,-99.99,,2013-03-07 00:01:00,
2013-03-06 16:11:00,56.0,38.0,25.84,West,270,8.0,14.0,50,-99.99,,,-99.99,,2013-03-07 00:11:00,
2013-03-06 16:21:00,56.0,38.0,25.84,WSW,255,8.0,14.0,51,-99.99,,,-99.99,,2013-03-07 00:21:00,
2013-03-06 16:32:00,56.0,39.0,25.84,West,259,7.0,14.0,52,-99.99,,,-99.99,,2013-03-07 00:32:00,
2013-03-06 16:41:00,56.0,39.0,25.84,West,259,7.0,14.0,52,-99.99,,,-99.99,,2013-03-07 00:41:00,
2013-03-06 16:51:00,56.0,39.0,25.87,WSW,257,7.0,12.0,53,-99.99,,,-99.99,,2013-03-07 00:51:00,
2013-03-06 17:01:00,56.0,40.0,25.87,WSW,254,7.0,14.0,54,-99.99,,,-99.99,,2013-03-07 01:01:00,
2013-03-06 17:11:00,55.0,40.0,25.90,SW,235,7.0,13.0,56,-99.99,,,-99.99,,2013-03-07 01:11:00,
2013-03-06 17:21:00,54.0,40.0,25.93,SW,231,10.0,16.0,58,-99.99,,,-99.99,,2013-03-07 01:21:00,
2013-03-06 17:31:00,54.0,40.0,25.93,SW,226,8.0,13.0,59,-99.99,,,-99.99,,2013-03-07 01:31:00,
2013-03-06 17:41:00,53.0,40.0,25.93,SW,225,9.0,13.0,61,-99.99,,,-99.99,,2013-03-07 01:41:00,
2013-03-06 17:51:00,52.0,40.0,25.96,SW,232,7.0,11.0,63,-99.99,,,-99.99,,2013-03-07 01:51:00,
2013-03-06 18:01:00,51.0,40.0,25.99,SW,234,8.0,11.0,65,-99.99,,,-99.99,,2013-03-07 02:01:00,
2013-03-06 18:11:00,51.0,40.0,25.99,SW,235,7.0,11.0,66,-99.99,,,-99.99,,2013-03-07 02:11:00,
2013-03-06 18:21:00,50.0,40.0,26.02,SW,233,7.0,10.0,68,-99.99,,,-99.99,,2013-03-07 02:21:00,
2013-03-06 18:31:00,49.0,39.0,26.02,SW,230,7.0,11.0,69,-99.99,,,-99.99,,2013-03-07 02:31:00,
2013-03-06 18:41:00,49.0,39.0,26.02,SW,230,7.0,11.0,69,-99.99,,,-99.99,,2013-03-07 02:41:00,
2013-03-06 18:51:00,49.0,39.0,26.02,SW,230,7.0,11.0,69,-99.99,,,-99.99,,2013-03-07 02:51:00,
2013-03-06 19:01:00,47.0,38.0,26.05,WSW,237,7.0,11.0,72,-99.99,,,-99.99,,2013-03-07 03:01:00,
2013-03-06 19:11:00,47.0,39.0,26.05,WSW,249,6.0,9.0,74,-99.99,,,-99.99,,2013-03-07 03:11:00,
2013-03-06 19:21:00,46.0,39.0,26.08,WSW,246,6.0,9.0,75,-99.99,,,-99.99,,2013-03-07 03:21:00,
2013-03-06 19:31:00,46.0,39.0,26.08,WSW,240,5.0,8.0,77,-99.99,,,-99.99,,2013-03-07 03:31:00,
2013-03-06 19:41:00,45.0,39.0,26.11,SW,227,3.0,6.0,78,-99.99,,,-99.99,,2013-03-07 03:41:00,
2013-03-06 19:51:00,45.0,39.0,26.11,SW,226,4.0,5.0,80,-99.99,,,-99.99,,2013-03-07 03:51:00,
2013-03-06 20:01:00,44.0,39.0,26.14,SW,223,5.0,7.0,81,-99.99,,,-99.99,,2013-03-07 04:01:00,
2013-03-06 20:11:00,44.0,39.0,26.14,SW,228,5.0,7.0,82,-99.99,,,-99.99,,2013-03-07 04:11:00,
2013-03-06 20:21:00,44.0,39.0,26.14,SW,216,5.0,7.0,83,-99.99,,,-99.99,,2013-03-07 04:21:00,
2013-03-06 20:31:00,44.0,39.0,26.17,SW,220,4.0,6.0,84,-99.99,,,-99.99,,2013-03-07 04:31:00,
2013-03-06 20:41:00,44.0,39.0,26.17,SW,230,5.0,8.0,84,-99.99,,,-99.99,,2013-03-07 04:41:00,
2013-03-06 20:51:00,43.0,39.0,26.20,SW,229,4.0,6.0,86,-99.99,,,-99.99,,2013-03-07 04:51:00,
2013-03-06 21:01:00,43.0,39.0,26.20,SW,229,4.0,6.0,86,-99.99,,,-99.99,,2013-03-07 05:01:00,
2013-03-06 21:12:00,42.0,38.0,26.20,SW,225,4.0,5.0,87,-99.99,,,-99.99,,2013-03-07 05:12:00,
2013-03-06 21:22:00,42.0,39.0,26.20,SW,215,3.0,6.0,88,-99.99,,,-99.99,,2013-03-07 05:22:00,
2013-03-06 21:31:00,42.0,39.0,26.20,SW,218,3.0,4.0,88,-99.99,,,-99.99,,2013-03-07 05:31:00,
2013-03-06 21:41:00,42.0,39.0,26.20,SW,218,3.0,4.0,88,-99.99,,,-99.99,,2013-03-07 05:41:00,
2013-03-06 21:52:00,42.0,39.0,26.20,SSW,203,2.0,3.0,89,-99.99,,,-99.99,,2013-03-07 05:52:00,
2013-03-06 22:01:00,42.0,39.0,26.20,SW,235,2.0,3.0,89,-99.99,,,-99.99,,2013-03-07 06:01:00,
2013-03-06 22:11:00,42.0,39.0,26.20,WSW,246,3.0,4.0,89,-99.99,,,-99.99,,2013-03-07 06:11:00,
2013-03-06 22:21:00,41.0,38.0,26.23,WSW,248,2.0,3.0,89,-99.99,,,-99.99,,2013-03-07 06:21:00,
2013-03-06 22:31:00,41.0,38.0,26.20,South,187,0.0,2.0,89,-99.99,,,-99.99,,2013-03-07 06:31:00,
2013-03-06 22:41:00,40.0,37.0,26.23,North,-999,0.0,0.0,90,-99.99,,,-99.99,,2013-03-07 06:41:00,
2013-03-06 22:51:00,39.0,37.0,26.23,SW,221,0.0,1.0,91,-99.99,,,-99.99,,2013-03-07 06:51:00,
2013-03-06 23:01:00,39.0,37.0,26.23,SW,221,0.0,1.0,91,-99.99,,,-99.99,,2013-03-07 07:01:00,
2013-03-06 23:11:00,40.0,38.0,26.23,SW,219,1.0,1.0,92,-99.99,,,-99.99,,2013-03-07 07:11:00,
2013-03-06 23:21:00,39.0,37.0,26.23,SSW,193,0.0,1.0,92,-99.99,,,-99.99,,2013-03-07 07:21:00,
2013-03-06 23:31:00,38.0,36.0,26.23,NNE,12,1.0,3.0,91,-99.99,,,-99.99,,2013-03-07 07:31:00,
2013-03-06 23:41:00,36.0,34.0,26.23,NNE,23,2.0,3.0,92,-99.99,,,-99.99,,2013-03-07 07:41:00,
2013-03-06 23:52:00,36.0,34.0,26.23,NE,39,3.0,4.0,93,-99.99,,,-99.99,,2013-03-07 07:52:00,